Location: Hungerford
(51.4167°N, 1.5167°W)
Time: 15:27:54
(UTC+00:00)

Cosmos 1833 Rocket - Pass Details

Date: 18 September 2020
Orbit: 831 x 841 km, 71.0° (Epoch: 27 October)

Event Time Altitude Azimuth Distance (km) Brightness Sun altitude
Rises 19:57:34 0° 331° (NNW) 3,408 6.8 -16.6°
Reaches altitude 10° 20:00:20 10° 342° (NNW) 2,471 5.7 -17.0°
Maximum altitude 20:05:18 30° 43° (NE) 1,473 3.8 -17.7°
Enters shadow 20:07:26 23° 79° (E) 1,704 3.8 -18.0°
